2023/01/05 00:00:00,19.7,-0.7
2023/01/05 00:10:00,19.6,-0.8
2023/01/05 00:20:00,19.5,-0.8
2023/01/05 00:30:00,19.5,-1.1
2023/01/05 00:40:00,19.4,-1.1
2023/01/05 00:50:00,19.4,-1.0
2023/01/05 01:00:00,19.4,-0.9
2023/01/05 01:10:00,19.4,-1.0
2023/01/05 01:20:00,19.4,-0.8
2023/01/05 01:30:00,19.6,-0.7
2023/01/05 01:40:00,20.1,-0.8
2023/01/05 01:50:00,20.3,-0.7
2023/01/05 02:00:00,20.7,-0.8
2023/01/05 02:10:00,21.2,-0.3
2023/01/05 02:20:00,21.7,-0.9
2023/01/05 02:30:00,21.8,-0.9
2023/01/05 02:40:00,22.1,-0.6
2023/01/05 02:50:00,22.2,-1.0
2023/01/05 03:00:00,22.4,-0.6
2023/01/05 03:10:00,22.8,-0.9
2023/01/05 03:20:00,23.1,-0.7
2023/01/05 03:30:00,23.1,-0.7
2023/01/05 03:40:00,23.1,-0.8
2023/01/05 03:50:00,23.4,-0.8
2023/01/05 04:00:00,23.5,-0.9
2023/01/05 04:10:00,23.8,-0.7
2023/01/05 04:20:00,24.0,-0.8
2023/01/05 04:30:00,24.2,-0.7
2023/01/05 04:40:00,24.3,-0.8
2023/01/05 04:50:00,24.3,-0.7
2023/01/05 05:00:00,24.6,-0.8
2023/01/05 05:10:00,25.0,-0.7
2023/01/05 05:20:00,25.0,-0.8
2023/01/05 05:30:00,25.1,-0.8
2023/01/05 05:40:00,61.0,-0.8
2023/01/05 05:50:00,78.1,-1.0
2023/01/05 06:00:00,---,-0.7
2023/01/05 06:10:00,25.0,-0.8
2023/01/05 06:20:00,25.0,-0.8
2023/01/05 06:30:00,25.2,-0.7
2023/01/05 06:40:00,25.3,-0.7
2023/01/05 06:50:00,25.2,-0.7
2023/01/05 07:00:00,25.5,-0.7
2023/01/05 07:10:00,26.0,-0.7
2023/01/05 07:20:00,26.0,-0.8
2023/01/05 07:30:00,26.0,-0.9
2023/01/05 07:40:00,26.2,-0.7
2023/01/05 07:50:00,26.0,-0.5
2023/01/05 08:00:00,26.0,-0.1
2023/01/05 08:10:00,25.8,-0.4
2023/01/05 08:20:00,25.5,-0.6
2023/01/05 08:30:00,24.5,-0.3
2023/01/05 08:40:00,25.2,-0.5
2023/01/05 08:50:00,25.3,-0.4
2023/01/05 09:00:00,25.5,-0.1
2023/01/05 09:10:00,25.7,-0.1
2023/01/05 09:20:00,26.1, 0.4
2023/01/05 09:30:00,26.4, 1.5
2023/01/05 09:40:00,26.2, 1.7
2023/01/05 09:50:00,25.9, 0.8
2023/01/05 10:00:00,25.7, 1.5
2023/01/05 10:10:00,25.7, 1.1
2023/01/05 10:20:00,26.0, 1.8
2023/01/05 10:30:00,26.0, 2.0
2023/01/05 10:40:00,26.0, 1.9
2023/01/05 10:50:00,25.8, 1.3
2023/01/05 11:00:00,25.7, 1.5
2023/01/05 11:10:00,25.5, 0.6
2023/01/05 11:20:00,25.5, 0.7
2023/01/05 11:30:00,25.3, 0.4
2023/01/05 11:40:00,25.3, 0.8
2023/01/05 11:50:00,25.5, 1.3
2023/01/05 12:00:00,25.5, 1.2
2023/01/05 12:10:00,25.1, 0.6
2023/01/05 12:20:00,25.0, 0.4
2023/01/05 12:30:00,25.0, 0.2
2023/01/05 12:40:00,24.8, 0.2
2023/01/05 12:50:00,24.8, 0.3
2023/01/05 13:00:00,24.9, 0.1
2023/01/05 13:10:00,24.8, 0.3
2023/01/05 13:20:00,24.7,-0.1
2023/01/05 13:30:00,24.7,-0.1
2023/01/05 13:40:00,24.7,-0.1
2023/01/05 13:50:00,24.8,-0.1
2023/01/05 14:00:00,24.7, 0.2
2023/01/05 14:10:00,24.8,-0.5
2023/01/05 14:20:00,25.2,-0.4
2023/01/05 14:30:00,25.5, 0.1
2023/01/05 14:40:00,25.3, 0.4
2023/01/05 14:50:00,25.2, 0.2
2023/01/05 15:00:00,25.2, 0.7
2023/01/05 15:10:00,24.9, 0.4
2023/01/05 15:20:00,24.7, 0.6
2023/01/05 15:30:00,24.6, 0.0
2023/01/05 15:40:00,24.5, 0.4
2023/01/05 15:50:00,24.6, 0.4
2023/01/05 16:00:00,24.7, 1.0
2023/01/05 16:10:00,24.4, 0.4
2023/01/05 16:20:00,24.3, 0.3
2023/01/05 16:30:00,24.1, 0.0
2023/01/05 16:40:00,24.1,-0.2
2023/01/05 16:50:00,24.2,-0.1
2023/01/05 17:00:00,24.1,-0.3
2023/01/05 17:10:00,24.0,-0.2
2023/01/05 17:20:00,24.0,-0.4
2023/01/05 17:30:00,24.0,-0.3
2023/01/05 17:40:00,24.0,-0.4
2023/01/05 17:50:00,23.9,-0.3
2023/01/05 18:00:00,23.8,-0.8
2023/01/05 18:10:00,23.9,-0.5
2023/01/05 18:20:00,23.8,-0.4
2023/01/05 18:30:00,23.8,-0.4
2023/01/05 18:40:00,23.7,-0.3
2023/01/05 18:50:00,23.7,-0.6
2023/01/05 19:00:00,23.7,-0.8
2023/01/05 19:10:00,23.6,-0.5
2023/01/05 19:20:00,23.5,-0.5
2023/01/05 19:30:00,23.5,-0.4
2023/01/05 19:40:00,23.5,-0.3
2023/01/05 19:50:00,23.5,-0.4
2023/01/05 20:00:00,23.5,-0.4
2023/01/05 20:10:00,23.4,-0.5
2023/01/05 20:20:00,23.3,-0.5
2023/01/05 20:30:00,23.3,-0.3
2023/01/05 20:40:00,23.3,-0.5
2023/01/05 20:50:00,23.3,-0.4
2023/01/05 21:00:00,23.2,-0.4
2023/01/05 21:10:00,23.2,-0.4
2023/01/05 21:20:00,23.1,-0.6
2023/01/05 21:30:00,23.1,-0.6
2023/01/05 21:40:00,23.1,-0.4
2023/01/05 21:50:00,22.9,-0.5
2023/01/05 22:00:00,22.8,-0.5
2023/01/05 22:10:00,22.9,-0.4
2023/01/05 22:20:00,22.9,-0.5
2023/01/05 22:30:00,22.9,-0.4
2023/01/05 22:40:00,22.8,-0.4
2023/01/05 22:50:00,22.8,-0.6
2023/01/05 23:00:00,22.7,-0.7
2023/01/05 23:10:00,22.6,-0.5
2023/01/05 23:20:00,22.6,-0.4
2023/01/05 23:30:00,22.6,-0.5
2023/01/05 23:40:00,22.6,-0.4
2023/01/05 23:50:00,22.6,-0.5
